GOKTURK 2

Last updated on Sat Jul 05 2025 00:02:29 GMT+0000 (Coordinated Universal Time)

1 39030U 12073A 25185.61666912 .00000362 00000+0 60834-4 0 9991 2 39030 97.7087 35.0566 0001908 71.5029 288.6388 14.75026115673294
UTC large
Height (km)
Speed (km/s)
/
Latitude / Longitude
Inclination (degrees)
Orbital Period (minutes)
Azimuth
Elevation
Range (km)
Doppler Factor

Next 0 passes for location: London (51.5072 / 0.1276)

Sorry there are no passes over London.